Regional Weather Roundup
Issued by NWS

Home | Current Version | Previous Version | Graphics & Text | Print | Product List | Glossary On
Versions: 1 2 3 4 5 6 7 8 9 10 11 12 13 14 15 16 17 18 19 20 21 22 23 24 25 26 27
000
ASUS45 KTFX 281710
RWRMT
MONTANA REGIONAL WEATHER ROUNDUP
NATIONAL WEATHER SERVICE GREAT FALLS MT
1100 AM MDT SAT MAY 28 2016

NOTE: "FAIR" INDICATES FEW OR NO CLOUDS BELOW 12000 FEET WITH NO
SIGNIFICANT WEATHER AND/OR OBSTRUCTIONS TO VISIBILITY.

MTZ001>007-043-281800-
WEST OF THE DIVIDE

CITY           SKY/WX    TMP DP  RH WIND       PRES   REMARKS
KALISPELL      PTSUNNY   53  35  50 SE10      30.01F
MISSOULA       PTSUNNY   52  36  54 N6        30.06F
BUTTE          CLOUDY    47  30  51 NW7       30.04F
MULLAN PASS    PTSUNNY   46  29  51 VRB3      30.05S
ANACONDA         N/A     46  36  66 N7        30.04S
DEER LODGE       N/A     46  32  57 N5        30.06F
EUREKA           N/A     57  34  41 S7        30.01
HAMILTON         N/A     54  28  37 N5        30.06S
LIBBY            N/A     54  32  43 CALM      30.03S
$$

MTZ008-052>055-281800-
SOUTHWEST MONTANA

CITY           SKY/WX    TMP DP  RH WIND       PRES   REMARKS
BOZEMAN        MOSUNNY   53  38  56 W6        30.03S
DILLON         CLOUDY    50  38  63 S3        30.02F
W YELLOWSTONE  CLOUDY    43  30  61 SW13      30.09R
ENNIS          CLOUDY    46  43  87 N9        30.09S
$$

MTZ009-010-012-014-046-048-049-054-281800-
EAST SLOPES AND CENTRAL MONTANA

CITY           SKY/WX    TMP DP  RH WIND       PRES   REMARKS
CUT BANK       MOSUNNY   57  31  37 W18G26    29.94S
GREAT FALLS    MOSUNNY   56  26  31 W21       29.98S
MALMSTROM AFB  MOSUNNY   55  29  36 SW17G24   29.98S
HELENA         SUNNY     56  30  37 W20G25    30.01F
CHOTEAU          N/A     55  28  35 W17       29.98S
$$

MTZ011-013-016-021-045-047-050-051-281800-
NORTH CENTRAL MONTANA

CITY           SKY/WX    TMP DP  RH WIND       PRES   REMARKS
HAVRE          SUNNY     58  39  49 SW9       29.92F
LEWISTOWN      MOSUNNY   57  33  40 W10       29.98S
N BAR RANCH      N/A     54  32  43 VRB7G17   29.99S
CHINOOK          N/A     59  39  47 W12       29.92F
$$

MTZ017>020-022>027-061-062-281800-
NORTHEAST MONTANA

CITY           SKY/WX    TMP DP  RH WIND       PRES   REMARKS
GLASGOW        CLOUDY    54  51  90 NW12      29.91R
JORDAN           N/A     59  47  64 NW13      29.93S
SIDNEY         PTSUNNY   65  54  67 VRB3      29.87S
WOLF POINT     LGT RAIN  59  56  89 W7        29.89F FOG
PLENTYWOOD       N/A     57  54  88 E8        29.91S
POPLAR           N/A     61  54  77 W10       29.89S
$$

MTZ028>42-056>058-281800-
SOUTHCENTRAL AND SOUTHEAST MONTANA

CITY           SKY/WX    TMP DP  RH WIND       PRES   REMARKS
BAKER          MOSUNNY   68  49  50 W12G21    29.90S
BILLINGS       PTSUNNY   58  43  57 S8        29.99S
LIVINGSTON     LGT RAIN  50  41  71 W8        30.01S
MILES CITY     CLOUDY    61  50  67 W10       29.94R
FORSYTH          N/A     61  45  55 W13       29.94F
$$

REGIONAL REPORTS...DAKOTAS

CITY           SKY/WX    TMP DP  RH WIND       PRES   REMARKS
WILLISTON      CLOUDY    64  53  67 NE7       29.89F
MINOT          CLOUDY    63  53  70 N5        29.90S
DICKINSON      MOSUNNY   66  47  50 CALM      29.86F
BEACH          PTSUNNY   66  48  52 W14       29.90S
CROSBY         CLOUDY    54  54 100 E10       29.94S
WATFORD CITY   PTSUNNY   64  52  63 SE9       29.89S
BISMARCK       CLOUDY    66  55  67 E5        29.88S
GRAND FORKS    CLOUDY    72  55  55 NE13      29.83S
FARGO          CLOUDY    70  56  61 NE13      29.80F
BUFFALO SD       N/A     62  51  67 NW3       29.85R
RAPID CITY     MOSUNNY   69  47  45 NE6       29.91S
$$

REGIONAL REPORTS...WYOMING/IDAHO/WASHINGTON

CITY           SKY/WX    TMP DP  RH WIND       PRES   REMARKS
GILLETTE       PTSUNNY   62  46  55 NW12      29.97S
SHERIDAN       CLOUDY    58  46  64 NW9       30.00S
BUFFALO WY     CLOUDY    53  44  71 N13G24    30.02R
CODY           SUNNY     54  43  66 NE6       30.00F
YELLOWSTONE LA   N/A     45  25  45 VRB3      30.11S
IDAHO FALLS    MOSUNNY   54  34  46 SW15G24   30.07R
SALMON         CLOUDY    54  36  50 NW3       30.03S
BOISE          SUNNY     57  33  40 VRB6      30.10S
SPOKANE        PTSUNNY   53  36  52 S9        30.07R
$$

REGIONAL REPORTS...ALBERTA

CITY           SKY/WX    TMP DP  RH WIND       PRES   REMARKS
EDMONTON       MOSUNNY   54  41  62 W7        29.85F
CALGARY        MOSUNNY   54  36  50 VRB2      29.88F
LETHBRIDGE     MOSUNNY   59  32  36 W16G26    29.90F
MEDICINE HAT   PTSUNNY   57  46  67 SW8       29.88S
WATERTON GATE    N/A     52  30  43 SW18G28     N/A
CARDSTON         N/A     55  30  38 W10G20      N/A
MILK RIVER       N/A     57  30  35 W12         N/A
$$

REGIONAL REPORTS...SASKATCHEWAN

CITY           SKY/WX    TMP DP  RH WIND       PRES   REMARKS
SWIFT CURRENT  LGT RAIN  48  48 100 W16       29.89R FOG
REGINA         PTSUNNY   61  52  72 SE14G21   29.92F
SASKATOON      CLOUDY    54  50  87 E13       29.94F
CYPRESS HILLS    N/A     54  36  50 SW8         N/A
VAL MARIE        N/A     55  50  82 N14         N/A
ROCKGLEN         N/A     52  50  93 W7          N/A
ASSINIBOIA       N/A     54  46  76 NW7         N/A
$$




USA.gov is the U.S. government's official web portal to all federal, state and local government web resources and services.